This is the latest recevied weather packets stored in our database for station/object KO4IDC-13. If no packets are shown the sender has not sent any weather packets the latest 10 day(s).
| Time | Temp. | Humidity | Pressure | Rain* | Wind** | Luminosity | Snow |
|---|---|---|---|---|---|---|---|
| 1778019998 | 16.67° C | 98% | 1009.4 hPa | 7.87 mm | - | 28 W/m² | - |
| 1778019695 | 16.67° C | 98% | 1009.4 hPa | 4.32 mm | - | 18 W/m² | - |
| 1778019392 | 16.67° C | 98% | 1009 hPa | 4.32 mm | - | 26 W/m² | - |
| 1778019088 | 16.67° C | 98% | 1009.4 hPa | 3.05 mm | - | 29 W/m² | - |
| 1778018786 | 16.67° C | 98% | 1009.3 hPa | 3.05 mm | - | 34 W/m² | - |
| 1778018483 | 16.67° C | 98% | 1009.3 hPa | 3.05 mm | - | 44 W/m² | - |
| 1778018181 | 16.67° C | 98% | 1009.3 hPa | 4.83 mm | - | 30 W/m² | - |
| 1778017879 | 16.67° C | 98% | 1009.3 hPa | 4.83 mm | - | 47 W/m² | - |
| 1778017577 | 16.67° C | 98% | 1009.3 hPa | 3.05 mm | - | 47 W/m² | - |
| 1778017274 | 16.67° C | 98% | 1009.3 hPa | 3.05 mm | - | 40 W/m² | - |
| 1778016971 | 16.67° C | 98% | 1009.4 hPa | 3.05 mm | - | 42 W/m² | - |
| 1778016668 | 16.67° C | 98% | 1009.3 hPa | 3.05 mm | - | 30 W/m² | - |
| 1778016364 | 16.67° C | 97% | 1009.3 hPa | 3.05 mm | - | 41 W/m² | - |
| 1778016062 | 16.11° C | 97% | 1009.3 hPa | 3.05 mm | - | 37 W/m² | - |
| 1778015758 | 16.11° C | 97% | 1009.3 hPa | 3.05 mm | - | 45 W/m² | - |
| 1778015455 | 16.11° C | 97% | 1009.4 hPa | 6.1 mm | - | 50 W/m² | - |
| 1778015152 | 16.11° C | 97% | 1009.5 hPa | 9.65 mm | - | 56 W/m² | - |
| 1778014849 | 16.11° C | 97% | 1009.5 hPa | 8.89 mm | - | 42 W/m² | - |
| 1778014547 | 16.11° C | 97% | 1009.6 hPa | 6.1 mm | - | 47 W/m² | - |
| 1778014244 | 16.11° C | 97% | 1009.5 hPa | 3.05 mm | - | 64 W/m² | - |
| 1778013941 | 16.11° C | 97% | 1009.5 hPa | 1.78 mm | - | 48 W/m² | - |
| 1778013638 | 16.11° C | 97% | 1009.5 hPa | 4.83 mm | - | 47 W/m² | - |
| 1778013335 | 16.11° C | 97% | 1009.4 hPa | 14.99 mm | - | 82 W/m² | - |
| 1778013032 | 16.11° C | 97% | 1009.3 hPa | 27.69 mm | - | 80 W/m² | - |
| 1778012728 | 16.11° C | 97% | 1009.4 hPa | 21.59 mm | - | 37 W/m² | - |
* Rain latest hour (hover to see other rain measurements)
** Current wind speed in m/s (hover to see current wind gust speed)